GW4386 Weather Reports


Display with metric or nautical units.
time (UTC)temp
F
wind
direction
speed
MPH
gust
MPH
rain 1hr
in
rain 24hr
in
rain mn
in
humidity
%
barometer
mb
20260508225101 48 155 0.0 0.0 0.00 0.00 0.00 75 1023.1
20260508224559 48 124 0.0 0.0 0.00 0.00 0.00 75 1023.1
20260508224102 49 88 0.0 0.0 0.00 0.00 0.00 75 1023.2
20260508223559 49 139 0.0 2.0 0.00 0.00 0.00 75 1023.2
20260508223059 49 57 0.0 2.0 0.00 0.00 0.00 74 1023.2
20260508222602 49 52 0.0 2.0 0.00 0.00 0.00 73 1023.2
20260508222506 49 144 0.0 0.0 0.00 0.00 0.00 74 1023.2
20260508222059 49 197 0.0 1.0 0.00 0.00 0.00 74 1023.2
20260508221559 49 76 0.0 1.0 0.00 0.00 0.00 73 1023.2
20260508221059 49 67 0.0 2.0 0.00 0.00 0.00 73 1023.1
20260508220558 49 50 0.0 2.0 0.00 0.00 0.00 73 1023.1
20260508220100 49 325 0.0 3.0 0.00 0.00 0.00 74 1023.1
20260508220004 49 27 0.0 3.0 0.00 0.00 0.00 75 1023.1
20260508215559 49 351 0.0 3.0 0.00 0.00 0.00 75 1023.2
20260508215101 49 61 1.0 3.0 0.00 0.00 0.00 75 1023.2
20260508214607 49 54 0.0 3.0 0.00 0.00 0.00 76 1023.2
20260508214101 49 64 0.0 4.0 0.00 0.00 0.00 77 1023.1
20260508213600 48 48 1.0 4.0 0.00 0.00 0.00 77 1023.1
20260508213100 48 43 0.0 2.0 0.00 0.00 0.00 77 1023.1
20260508212600 49 59 0.0 2.0 0.00 0.00 0.00 77 1023.1
20260508212102 49 331 0.0 0.0 0.00 0.00 0.00 76 1023.1
20260508211600 49 322 0.0 1.0 0.00 0.00 0.00 75 1023.1
20260508211100 49 22 0.0 1.0 0.00 0.00 0.00 75 1023.1
20260508211001 49 302 0.0 1.0 0.00 0.00 0.00 75 1023.1
20260508210602 49 288 0.0 1.0 0.00 0.00 0.00 74 1023.1
20260508210108 49 351 0.0 1.0 0.00 0.00 0.00 74 1023.0
20260508210002 49 347 0.0 1.0 0.00 0.00 0.00 74 1023.1
20260508205600 49 308 0.0 0.0 0.00 0.00 0.00 74 1023.0
20260508205500 49 308 0.0 0.0 0.00 0.00 0.00 73 1023.0
20260508205003 49 308 0.0 0.0 0.00 0.00 0.00 73 1023.0
20260508204600 49 308 0.0 0.0 0.00 0.00 0.00 73 1023.0
20260508204059 49 255 0.0 0.0 0.00 0.00 0.00 73 1023.0
20260508203601 49 287 0.0 0.0 0.00 0.00 0.00 72 1023.0
20260508203106 49 294 0.0 0.0 0.00 0.00 0.00 72 1023.0
20260508202600 49 298 0.0 0.0 0.00 0.00 0.00 72 1022.9
20260508202002 50 298 0.0 0.0 0.00 0.00 0.00 72 1022.9
20260508201601 50 298 0.0 0.0 0.00 0.00 0.00 71 1022.8
20260508201100 50 298 0.0 0.0 0.00 0.00 0.00 71 1022.8
20260508200600 50 298 0.0 0.0 0.00 0.00 0.00 70 1022.8
20260508200002 50 300 0.0 1.0 0.00 0.00 0.00 70 1022.7
20260508195559 50 310 0.0 1.0 0.00 0.00 0.00 69 1022.7
20260508195059 50 335 0.0 2.0 0.00 0.00 0.00 69 1022.7
20260508194603 50 33 0.0 2.0 0.00 0.00 0.00 69 1022.6
20260508194059 50 310 0.0 2.0 0.00 0.00 0.00 69 1022.6
20260508193600 50 38 0.0 2.0 0.00 0.00 0.00 69 1022.7
20260508193115 51 344 0.0 1.0 0.00 0.00 0.00 69 1022.6
20260508192603 51 72 0.0 3.0 0.00 0.00 0.00 68 1022.7
20260508192503 51 70 0.0 3.0 0.00 0.00 0.00 68 1022.6
20260508192100 51 77 0.0 3.0 0.00 0.00 0.00 68 1022.6
20260508191615 51 80 0.0 4.0 0.00 0.00 0.00 68 1022.6
20260508191059 51 64 0.0 4.0 0.00 0.00 0.00 68 1022.5
20260508190600 51 65 1.0 4.0 0.00 0.00 0.00 68 1022.5
20260508190100 51 54 1.0 4.0 0.00 0.00 0.00 68 1022.5
20260508190004 51 49 2.0 4.0 0.00 0.00 0.00 68 1022.5
20260508185603 51 27 1.0 5.0 0.00 0.00 0.00 68 1022.5
20260508185100 51 34 0.0 5.0 0.00 0.00 0.00 69 1022.4
20260508184600 51 15 0.0 4.0 0.00 0.00 0.00 69 1022.4
20260508184102 51 13 0.0 3.0 0.00 0.00 0.00 68 1022.4
20260508183559 51 54 0.0 3.0 0.00 0.00 0.00 68 1022.4
20260508183001 52 320 0.0 3.0 0.00 0.00 0.00 67 1022.2
20260508182600 52 61 0.0 2.0 0.00 0.00 0.00 67 1022.2
20260508182059 52 53 0.0 4.0 0.00 0.00 0.00 66 1022.2
20260508181603 52 25 1.0 6.0 0.00 0.00 0.00 66 1022.1
20260508181100 52 46 0.0 6.0 0.00 0.00 0.00 66 1022.1
20260508180559 52 54 2.0 6.0 0.00 0.00 0.00 65 1022.0
20260508180501 52 31 2.0 9.0 0.00 0.00 0.00 65 1022.0
20260508180100 52 55 3.0 9.0 0.00 0.00 0.00 65 1022.0
20260508180002 52 69 3.0 9.0 0.00 0.00 0.00 65 1022.0
20260508175600 52 38 3.0 9.0 0.00 0.00 0.00 65 1022.0
20260508175501 52 30 3.0 9.0 0.00 0.00 0.00 65 1022.0
20260508175059 52 33 4.0 13.0 0.00 0.00 0.00 65 1021.9
20260508174600 53 338 6.0 13.0 0.00 0.00 0.00 65 1021.8
20260508174101 53 32 3.0 8.0 0.00 0.00 0.00 65 1021.8
20260508173601 53 349 3.0 9.0 0.00 0.00 0.00 65 1021.7
20260508173101 53 39 3.0 12.0 0.00 0.00 0.00 65 1021.7
20260508173000 53 65 3.0 12.0 0.00 0.00 0.00 65 1021.7
20260508172600 53 46 4.0 10.0 0.00 0.00 0.00 65 1021.7
20260508172059 53 68 4.0 10.0 0.00 0.00 0.00 65 1021.6
20260508171611 53 64 4.0 10.0 0.00 0.00 0.00 65 1021.6
20260508171001 53 47 4.0 10.0 0.00 0.00 0.00 64 1021.6
20260508170600 54 59 4.0 11.0 0.00 0.00 0.00 65 1021.6
20260508170002 54 71 6.0 12.0 0.00 0.00 0.00 64 1021.6
20260508165559 54 63 4.0 11.0 0.00 0.00 0.00 64 1021.6
20260508165500 54 53 5.0 11.0 0.00 0.00 0.00 64 1021.6
20260508165101 54 57 5.0 11.0 0.00 0.00 0.00 64 1021.6
20260508164600 54 13 5.0 11.0 0.00 0.00 0.00 64 1021.6
20260508164059 54 13 5.0 11.0 0.00 0.00 0.00 64 1021.5
20260508163600 54 13 6.0 13.0 0.00 0.00 0.00 64 1021.5
20260508163101 54 42 5.0 13.0 0.00 0.00 0.00 64 1021.5
20260508162559 55 88 5.0 13.0 0.00 0.00 0.00 64 1021.5
20260508162104 55 17 7.0 14.0 0.00 0.00 0.00 63 1021.5
20260508161602 55 47 3.0 14.0 0.00 0.00 0.00 63 1021.4
20260508161100 55 20 5.0 14.0 0.00 0.00 0.00 63 1021.4
20260508161002 55 47 6.0 11.0 0.00 0.00 0.00 63 1021.4
20260508160559 55 51 4.0 11.0 0.00 0.00 0.00 63 1021.5
20260508160100 55 118 5.0 11.0 0.00 0.00 0.00 63 1021.4
20260508155559 55 52 5.0 15.0 0.00 0.00 0.00 63 1021.4
20260508155101 56 48 7.0 15.0 0.00 0.00 0.00 62 1021.4
20260508155001 56 47 6.0 12.0 0.00 0.00 0.00 62 1021.4
20260508154601 56 111 5.0 12.0 0.00 0.00 0.00 62 1021.4
20260508154100 56 51 4.0 13.0 0.00 0.00 0.00 62 1021.3
20260508153600 56 55 6.0 12.0 0.00 0.00 0.00 62 1021.3
20260508153100 56 41 5.0 13.0 0.00 0.00 0.00 61 1021.2
20260508152559 56 50 7.0 13.0 0.00 0.00 0.00 61 1021.2
20260508152104 56 45 5.0 11.0 0.00 0.00 0.00 61 1021.2
20260508151601 56 49 4.0 13.0 0.00 0.00 0.00 61 1021.2
20260508151100 56 78 5.0 10.0 0.00 0.00 0.00 61 1021.2
20260508150601 56 313 5.0 12.0 0.00 0.00 0.00 60 1021.2
20260508150004 56 41 7.0 12.0 0.00 0.00 0.00 59 1021.2
20260508145600 56 42 6.0 12.0 0.00 0.00 0.00 59 1021.2
20260508145059 56 52 5.0 14.0 0.00 0.00 0.00 60 1021.2
20260508144600 57 29 5.0 14.0 0.00 0.00 0.00 59 1021.2
20260508144100 57 70 4.0 14.0 0.00 0.00 0.00 59 1021.2
20260508144001 57 44 5.0 14.0 0.00 0.00 0.00 58 1021.2
20260508143604 57 69 4.0 12.0 0.00 0.00 0.00 59 1021.1
20260508143501 57 65 4.0 12.0 0.00 0.00 0.00 58 1021.1
20260508143103 57 80 6.0 15.0 0.00 0.00 0.00 59 1021.1
20260508142559 57 63 5.0 15.0 0.00 0.00 0.00 59 1021.1
20260508142100 57 59 4.0 11.0 0.00 0.00 0.00 58 1021.1
20260508141601 57 76 6.0 11.0 0.00 0.00 0.00 58 1021.1
20260508141101 57 53 5.0 11.0 0.00 0.00 0.00 58 1021.1
20260508140600 57 36 4.0 12.0 0.00 0.00 0.00 58 1021.2
20260508135559 57 39 4.0 10.0 0.00 0.00 0.00 57 1021.1
20260508135100 57 29 5.0 10.0 0.00 0.00 0.00 58 1021.1
20260508134601 57 53 4.0 12.0 0.00 0.00 0.00 58 1021.1
20260508134059 57 49 7.0 14.0 0.00 0.00 0.00 58 1021.1
20260508133559 57 340 8.0 14.0 0.00 0.00 0.00 57 1021.1
20260508133112 57 54 8.0 12.0 0.00 0.00 0.00 57 1021.0
20260508132558 57 65 6.0 12.0 0.00 0.00 0.00 57 1021.0
20260508132059 57 54 6.0 12.0 0.00 0.00 0.00 56 1021.0
20260508131603 58 40 3.0 10.0 0.00 0.00 0.00 56 1021.0
20260508131058 58 65 4.0 10.0 0.00 0.00 0.00 56 1021.0
20260508130559 58 20 5.0 13.0 0.00 0.00 0.00 54 1021.0
20260508130112 58 36 6.0 13.0 0.00 0.00 0.00 54 1021.1
20260508125559 58 30 6.0 12.0 0.00 0.00 0.00 55 1021.0
20260508125059 58 331 7.0 11.0 0.00 0.00 0.00 53 1021.0
20260508124600 59 67 6.0 12.0 0.00 0.00 0.00 53 1020.9
20260508124058 59 82 7.0 12.0 0.00 0.00 0.00 52 1020.9
20260508123558 59 123 3.0 11.0 0.00 0.00 0.00 53 1020.9
20260508123109 58 54 5.0 11.0 0.00 0.00 0.00 52 1020.9
20260508122559 58 40 5.0 10.0 0.00 0.00 0.00 53 1020.9
20260508122101 59 76 4.0 11.0 0.00 0.00 0.00 53 1020.9
20260508121607 58 126 6.0 11.0 0.00 0.00 0.00 53 1020.9
20260508121059 58 57 6.0 11.0 0.00 0.00 0.00 53 1021.0
20260508120558 58 80 4.0 9.0 0.00 0.00 0.00 52 1020.9
20260508120100 58 40 4.0 12.0 0.00 0.00 0.00 51 1020.8
20260508120001 58 50 3.0 12.0 0.00 0.00 0.00 51 1020.8
20260508115601 58 51 6.0 12.0 0.00 0.00 0.00 51 1020.8
20260508115101 58 55 4.0 10.0 0.00 0.00 0.00 52 1020.8
20260508114601 58 38 5.0 11.0 0.00 0.00 0.00 51 1020.8
20260508114100 58 66 5.0 11.0 0.00 0.00 0.00 50 1020.8
20260508113601 59 46 1.0 13.0 0.00 0.00 0.00 52 1020.8
20260508113109 58 52 4.0 13.0 0.00 0.00 0.00 50 1020.8
20260508112501 58 46 2.0 7.0 0.00 0.00 0.00 52 1020.8
20260508112100 58 36 3.0 8.0 0.00 0.00 0.00 52 1020.9
20260508111601 59 98 2.0 8.0 0.00 0.00 0.00 53 1020.9
20260508111102 58 91 3.0 8.0 0.00 0.00 0.00 54 1020.9
20260508111002 58 122 4.0 8.0 0.00 0.00 0.00 55 1020.9
20260508110559 57 45 5.0 7.0 0.00 0.00 0.00 54 1020.9
20260508110104 57 34 1.0 8.0 0.00 0.00 0.00 55 1021.0
20260508110001 57 282 2.0 8.0 0.00 0.00 0.00 55 1021.0
20260508105600 57 61 3.0 8.0 0.00 0.00 0.00 56 1021.0
20260508105059 56 9 4.0 10.0 0.00 0.00 0.00 55 1021.1
20260508104622 57 49 5.0 10.0 0.00 0.00 0.00 57 1021.1
20260508104101 57 269 2.0 7.0 0.00 0.00 0.00 58 1021.0
20260508103559 56 238 1.0 10.0 0.00 0.00 0.00 58 1021.0
20260508103059 56 13 3.0 10.0 0.00 0.00 0.00 58 1021.0
20260508102601 57 9 3.0 8.0 0.00 0.00 0.00 59 1020.9
20260508102059 57 218 2.0 12.0 0.00 0.00 0.00 60 1021.0
20260508101602 57 329 4.0 12.0 0.00 0.00 0.00 60 1021.0
20260508101059 57 33 4.0 8.0 0.00 0.00 0.00 60 1021.0
20260508100558 57 313 4.0 9.0 0.00 0.00 0.00 60 1020.9
20260508100059 56 32 2.0 9.0 0.00 0.00 0.00 61 1021.0
20260508100003 56 345 3.0 9.0 0.00 0.00 0.00 61 1021.0
20260508095602 56 317 3.0 9.0 0.00 0.00 0.00 62 1021.1
20260508095100 55 343 2.0 10.0 0.00 0.00 0.00 63 1021.1
20260508094559 56 30 3.0 11.0 0.00 0.00 0.00 64 1021.1
20260508094104 55 114 7.0 11.0 0.00 0.00 0.00 64 1021.1
20260508093603 55 36 3.0 13.0 0.00 0.00 0.00 65 1021.2
20260508093104 54 49 6.0 13.0 0.00 0.00 0.00 65 1021.2
20260508092600 54 28 4.0 10.0 0.00 0.00 0.00 66 1021.2
20260508092103 54 345 3.0 10.0 0.00 0.00 0.00 66 1021.2
20260508092001 54 28 4.0 10.0 0.00 0.00 0.00 67 1021.3
20260508091620 53 304 3.0 11.0 0.00 0.00 0.00 68 1021.3
20260508091100 53 55 5.0 11.0 0.00 0.00 0.00 68 1021.4
20260508090606 53 25 3.0 7.0 0.00 0.00 0.00 69 1021.4
20260508090110 53 77 4.0 11.0 0.00 0.00 0.00 70 1021.3
20260508085602 53 123 3.0 11.0 0.00 0.00 0.00 71 1021.4
20260508085059 53 20 4.0 10.0 0.00 0.00 0.00 71 1021.3
20260508084559 53 48 2.0 11.0 0.00 0.00 0.00 71 1021.3
20260508084059 52 40 4.0 12.0 0.00 0.00 0.00 72 1021.2
20260508083559 52 38 7.0 12.0 0.00 0.00 0.00 72 1021.3
20260508083111 51 57 2.0 12.0 0.00 0.00 0.00 74 1021.3
20260508082600 51 15 3.0 12.0 0.00 0.00 0.00 74 1021.4
20260508082059 51 54 5.0 11.0 0.00 0.00 0.00 74 1021.4
20260508081602 51 20 3.0 10.0 0.00 0.00 0.00 74 1021.4
20260508081102 51 43 4.0 10.0 0.00 0.00 0.00 74 1021.4
20260508080559 51 59 3.0 10.0 0.00 0.00 0.00 74 1021.3
20260508080109 51 10 3.0 9.0 0.00 0.00 0.00 74 1021.3
20260508075558 51 55 3.0 7.0 0.00 0.00 0.00 75 1021.3
20260508075100 51 26 3.0 6.0 0.00 0.00 0.00 74 1021.3
20260508074600 50 57 3.0 6.0 0.00 0.00 0.00 76 1021.3
20260508074059 50 16 4.0 10.0 0.00 0.00 0.00 75 1021.3
20260508073559 50 34 4.0 10.0 0.00 0.00 0.00 76 1021.3
20260508073100 50 43 4.0 8.0 0.00 0.00 0.00 76 1021.3
20260508072558 50 15 2.0 9.0 0.00 0.00 0.00 77 1021.2
20260508072058 50 90 4.0 9.0 0.00 0.00 0.00 77 1021.2
20260508071603 50 52 2.0 9.0 0.00 0.00 0.00 78 1021.1
20260508071058 49 44 4.0 9.0 0.00 0.00 0.00 79 1021.1
20260508070600 49 319 3.0 6.0 0.00 0.00 0.00 79 1021.1
20260508070143 49 65 3.0 7.0 0.00 0.00 0.00 80 1021.0
20260508065558 48 45 1.0 7.0 0.00 0.00 0.00 81 1021.0
20260508065058 48 336 1.0 6.0 0.00 0.00 0.00 82 1020.9
20260508064613 48 25 4.0 9.0 0.00 0.00 0.00 82 1020.9
20260508064103 48 48 4.0 9.0 0.00 0.00 0.00 82 1020.9
20260508063558 48 57 4.0 9.0 0.00 0.00 0.00 83 1021.0
20260508063058 48 48 0.0 4.0 0.00 0.00 0.00 83 1021.0
20260508062559 48 36 1.0 4.0 0.00 0.00 0.00 83 1020.9
20260508062058 47 69 1.0 6.0 0.00 0.00 0.00 83 1020.9
20260508061605 47 308 2.0 8.0 0.00 0.00 0.00 84 1020.8
20260508061100 47 12 3.0 8.0 0.00 0.00 0.00 84 1020.8
20260508060559 47 46 3.0 7.0 0.00 0.00 0.00 84 1020.8
20260508060058 47 61 1.0 6.0 0.00 0.00 0.00 84 1020.8
20260508060001 47 39 1.0 6.0 0.00 0.00 0.00 84 1020.8
20260508055559 47 129 2.0 6.0 0.00 0.00 0.00 85 1020.7
20260508055059 47 15 1.0 6.0 0.00 0.00 0.00 85 1020.7
20260508054559 47 11 2.0 7.0 0.00 0.00 0.00 85 1020.7
20260508054102 47 64 2.0 7.0 0.00 0.00 0.00 85 1020.6
20260508053558 46 24 1.0 7.0 0.00 0.00 0.00 85 1020.6
20260508053106 46 48 3.0 6.0 0.00 0.00 0.00 85 1020.6
20260508052559 46 54 2.0 6.0 0.00 0.00 0.00 85 1020.7
20260508052058 46 52 2.0 6.0 0.00 0.00 0.00 85 1020.6
20260508051558 46 45 2.0 11.0 0.00 0.00 0.00 85 1020.6
20260508051101 46 29 4.0 9.0 0.00 0.00 0.00 85 1020.6
20260508050559 46 313 1.0 10.0 0.00 0.00 0.00 85 1020.6
20260508045559 46 34 1.0 7.0 0.00 0.00 0.00 85 1020.6
20260508045101 46 55 3.0 7.0 0.00 0.00 0.00 85 1020.6
20260508044600 46 338 2.0 8.0 0.00 0.00 0.00 85 1020.6
20260508044058 46 319 1.0 5.0 0.00 0.00 0.00 85 1020.6
20260508043558 45 38 3.0 5.0 0.00 0.00 0.00 85 1020.5
20260508043105 45 347 2.0 4.0 0.00 0.00 0.00 85 1020.5
20260508042559 45 65 1.0 4.0 0.00 0.00 0.00 85 1020.4
20260508042058 45 24 1.0 5.0 0.00 0.00 0.00 85 1020.4
20260508041559 45 336 1.0 5.0 0.00 0.00 0.00 85 1020.4
20260508041101 45 331 1.0 5.0 0.00 0.00 0.00 85 1020.4
20260508040602 45 13 1.0 3.0 0.00 0.00 0.00 85 1020.4
20260508040058 45 336 0.0 3.0 0.00 0.00 0.00 85 1020.4
20260508040000 45 63 0.0 4.0 0.00 0.00 0.00 85 1020.4
20260508035602 45 32 0.0 4.0 0.00 0.00 0.00 85 1020.3
20260508035059 45 71 1.0 4.0 0.00 0.00 0.00 85 1020.2
20260508034559 45 38 2.0 4.0 0.00 0.00 0.00 85 1020.1
20260508034058 45 22 1.0 4.0 0.00 0.00 0.00 85 1020.2
20260508033558 45 65 0.0 4.0 0.00 0.00 0.00 85 1020.1
20260508033059 45 333 1.0 3.0 0.00 0.00 0.00 85 1020.1
20260508032600 45 63 0.0 2.0 0.00 0.00 0.00 85 1020.1
20260508032101 45 38 0.0 3.0 0.00 0.00 0.00 84 1020.1
20260508031600 45 38 0.0 3.0 0.00 0.00 0.00 84 1020.2
20260508031104 45 32 0.0 2.0 0.00 0.00 0.00 84 1020.2
20260508030559 45 319 0.0 3.0 0.00 0.00 0.00 84 1020.3
20260508025558 45 304 1.0 3.0 0.00 0.00 0.00 84 1020.2
20260508025059 45 42 0.0 3.0 0.00 0.00 0.00 84 1020.2
20260508024602 45 68 0.0 7.0 0.00 0.00 0.00 83 1020.2
20260508024102 45 45 1.0 7.0 0.00 0.00 0.00 83 1020.1
20260508023558 45 50 0.0 4.0 0.00 0.00 0.00 83 1020.1
20260508023059 45 53 1.0 6.0 0.00 0.00 0.00 83 1020.0
20260508022601 45 61 1.0 6.0 0.00 0.00 0.00 83 1019.9
20260508022059 45 38 2.0 5.0 0.00 0.00 0.00 83 1019.9
20260508021559 45 41 1.0 6.0 0.00 0.00 0.00 83 1019.9
20260508021101 45 34 2.0 6.0 0.00 0.00 0.00 83 1019.8
20260508020604 45 68 1.0 5.0 0.00 0.00 0.00 83 1019.8
20260508020059 45 24 0.0 5.0 0.00 0.00 0.00 82 1019.9
20260508015559 45 326 0.0 6.0 0.00 0.00 0.00 82 1019.8
20260508015059 45 13 2.0 6.0 0.00 0.00 0.00 82 1019.9
20260508015002 45 50 2.0 6.0 0.00 0.00 0.00 82 1019.9
20260508014558 45 59 0.0 5.0 0.00 0.00 0.00 82 1019.9
20260508014059 45 331 3.0 5.0 0.00 0.00 0.00 82 1019.8
20260508013559 45 59 0.0 5.0 0.00 0.00 0.00 82 1019.9
20260508013106 45 50 2.0 5.0 0.00 0.00 0.00 82 1019.8
20260508012559 45 11 1.0 4.0 0.00 0.00 0.00 82 1019.9
20260508012100 45 42 1.0 4.0 0.00 0.00 0.00 82 1019.9
20260508011558 45 322 1.0 7.0 0.00 0.00 0.00 82 1019.9
20260508011058 45 321 3.0 7.0 0.00 0.00 0.00 81 1019.9
20260508010558 45 329 1.0 4.0 0.00 0.00 0.00 81 1019.9
20260508010059 45 38 1.0 5.0 0.00 0.00 0.00 81 1019.8
20260508010001 45 59 2.0 5.0 0.00 0.00 0.00 81 1019.8
20260508005559 46 65 0.0 4.0 0.00 0.00 0.00 81 1019.8
20260508005101 46 18 2.0 4.0 0.00 0.00 0.00 81 1019.8
20260508004602 46 323 0.0 5.0 0.00 0.00 0.00 81 1019.8
20260508004058 46 69 1.0 5.0 0.00 0.00 0.00 81 1019.7
20260508003603 46 23 2.0 5.0 0.00 0.00 0.00 81 1019.7
20260508003059 46 296 0.0 4.0 0.00 0.00 0.00 81 1019.7
20260508002559 46 326 1.0 4.0 0.00 0.00 0.00 81 1019.7
20260508002058 46 66 0.0 4.0 0.00 0.00 0.00 81 1019.8
20260508001558 46 62 1.0 5.0 0.00 0.00 0.00 80 1019.8
20260508001058 46 51 0.0 5.0 0.00 0.00 0.00 80 1019.8
20260508000558 46 51 1.0 4.0 0.00 0.00 0.00 80 1019.8
20260508000058 46 62 1.0 5.0 0.00 0.00 0.00 80 1019.8
20260507235559 46 57 1.0 6.0 0.00 0.00 0.00 80 1019.9
20260507235100 46 59 1.0 6.0 0.00 0.00 0.00 80 1019.8
20260507234600 46 350 1.0 5.0 0.00 0.00 0.00 80 1019.8
20260507234059 46 55 1.0 5.0 0.00 0.00 0.00 79 1019.8
20260507233558 46 83 0.0 4.0 0.00 0.00 0.00 79 1019.8
20260507233059 46 313 0.0 6.0 0.00 0.00 0.00 79 1019.8
20260507232603 46 13 2.0 6.0 0.00 0.00 0.00 79 1019.7
20260507232058 46 38 3.0 5.0 0.00 0.00 0.00 79 1019.8
20260507231559 46 10 1.0 4.0 0.00 0.00 0.00 79 1019.7
20260507231101 46 55 0.0 7.0 0.00 0.00 0.00 78 1019.8
20260507230559 46 29 2.0 10.0 0.00 0.00 0.00 78 1019.7
20260507230108 46 53 3.0 10.0 0.00 0.00 0.00 78 1019.8
20260507225559 46 57 1.0 5.0 0.00 0.00 0.00 78 1019.8